Weather History for Ft Lauderdale, FL

Change the Weather History Date:

Sunday, March 24, 2013

  Actual Average Record
Temperature  
Mean Temperature 83 °F 74 °F  
Max Temperature 91 °F 81 °F 94 °F (1948)
Min Temperature 75 °F 67 °F 45 °F (1968)
Degree Days  
Heating Degree Days 0 0  
Month to date heating degree days 30 7  
Since 1 July heating degree days 73 109  
Cooling Degree Days 18 9  
Month to date cooling degree days 106 191  
Year to date cooling degree days 563 547  
Growing Degree Days 33 (Base 50)    
Moisture  
Dew Point 71 °F    
Average Humidity 71    
Maximum Humidity 94    
Minimum Humidity 47    
Precipitation  
Precipitation T in 0.10 in 1.80 in (1937)
Month to date precipitation 0.09 2.52  
Year to date precipitation 3.21 9.11  
Snow  
Snow 0.00 in - - ()
Month to date snowfall 0.0  
Since 1 July snowfall 0.0  
Snow Depth 0.00 in    
Sea Level Pressure  
Sea Level Pressure 29.78 in    
Wind  
Wind Speed 13 mph (SW)    
Max Wind Speed 28 mph    
Max Gust Speed 39 mph    
Visibility 8 miles    
Events      
T = Trace of Precipitation, MM = Missing Value Source: NWS Daily Summary

Daily Weather History Graph

Daily Weather History Graph

Search for Another Location

Airport:

Trip Planner

Search our weather history database for the weather conditions in past years. The results will help you decide how hot, cold, wet, or windy it might be!

Date:

Astronomy

Mar. 24, 2013 Rise Set
Actual Time 7:20 AM EDT 7:33 PM EDT
Civil Twilight 6:56 AM EDT 7:56 PM EDT
Nautical Twilight 6:30 AM EDT 8:23 PM EDT
Astronomical Twilight 6:03 AM EDT 8:50 PM EDT
Moon 5:12 PM EDT (3/24) 5:15 AM EDT (3/24)
Length of Visible Light 12h 59m
Length of Day
12h 13m
Waxing Gibbous, 91% of the Moon is Illuminated
Mar 24
Waxing Gibbous
Mar 27
Full
Apr 3
Last Quarter
Apr 10
New
Apr 18
First Quarter

Hourly Weather History & Observations

Time (EDT) Temp. Heat Index Dew Point Humidity Pressure Visibility Wind Dir Wind Speed Gust Speed Precip Events Conditions
12:53 AM 75.9 °F - 72.0 °F 87% 29.89 in 8.0 mi Calm Calm - N/A   Overcast
1:53 AM 75.9 °F - 73.9 °F 94% 29.87 in 5.0 mi SSE 5.8 mph - N/A   Partly Cloudy
2:53 AM 75.0 °F - 73.9 °F 96% 29.85 in 5.0 mi SSE 5.8 mph - N/A   Scattered Clouds
3:53 AM 75.0 °F - 73.0 °F 94% 29.83 in 6.0 mi South 5.8 mph - N/A   Scattered Clouds
4:51 AM 75.2 °F - 73.4 °F 94% 29.82 in 6.0 mi South 5.8 mph - N/A   Scattered Clouds
4:53 AM 75.9 °F - 73.0 °F 91% 29.82 in 6.0 mi South 6.9 mph - N/A   Partly Cloudy
5:53 AM 75.0 °F - 73.0 °F 94% 29.81 in 5.0 mi South 6.9 mph - N/A   Clear
6:53 AM 75.0 °F - 73.0 °F 94% 29.81 in 6.0 mi South 9.2 mph - N/A   Clear
7:53 AM 75.9 °F - 73.0 °F 91% 29.80 in 7.0 mi South 11.5 mph 18.4 mph N/A   Partly Cloudy
8:53 AM 77.0 °F - 73.0 °F 88% 29.78 in 9.0 mi South 13.8 mph 26.5 mph N/A   Scattered Clouds
9:06 AM 78.8 °F - 73.4 °F 83% 29.79 in 10.0 mi SSW 13.8 mph 21.9 mph N/A   Mostly Cloudy
9:53 AM 80.1 °F 84.2 °F 73.0 °F 79% 29.78 in 10.0 mi SSW 13.8 mph 25.3 mph N/A   Mostly Cloudy
10:53 AM 82.9 °F 88.0 °F 72.0 °F 69% 29.78 in 9.0 mi SSW 19.6 mph 25.3 mph N/A   Mostly Cloudy
11:53 AM 84.9 °F 89.4 °F 70.0 °F 61% 29.78 in 9.0 mi SSW 18.4 mph 27.6 mph N/A   Mostly Cloudy
12:36 PM 87.8 °F 91.4 °F 68.0 °F 52% 29.78 in 6.0 mi SW 25.3 mph 34.5 mph N/A   Haze
12:53 PM 90.0 °F 93.6 °F 68.0 °F 48% 29.77 in 8.0 mi SW 18.4 mph 34.5 mph N/A   Mostly Cloudy
1:53 PM 89.1 °F 92.9 °F 68.0 °F 50% 29.76 in 8.0 mi SW 20.7 mph 38.0 mph N/A   Mostly Cloudy
2:53 PM 89.1 °F 93.7 °F 69.1 °F 52% 29.73 in 10.0 mi WSW 15.0 mph 25.3 mph N/A   Mostly Cloudy
3:10 PM 89.6 °F 93.4 °F 68.0 °F 49% 29.73 in 1.8 mi WSW 20.7 mph 31.1 mph N/A   Haze
3:25 PM 91.4 °F 95.4 °F 68.0 °F 46% 29.72 in 10.0 mi WSW 13.8 mph 29.9 mph N/A   Scattered Clouds
3:53 PM 90.0 °F 92.8 °F 66.9 °F 46% 29.72 in 7.0 mi SW 17.3 mph 36.8 mph N/A   Scattered Clouds
4:53 PM 88.0 °F 92.1 °F 69.1 °F 53% 29.71 in 7.0 mi WSW 21.9 mph 29.9 mph N/A   Scattered Clouds
5:53 PM 86.0 °F 90.1 °F 69.1 °F 57% 29.71 in 7.0 mi West 20.7 mph 31.1 mph N/A   Scattered Clouds
6:53 PM 82.9 °F 86.5 °F 69.1 °F 63% 29.72 in 7.0 mi WSW 19.6 mph 28.8 mph N/A   Scattered Clouds
7:53 PM 82.0 °F 85.9 °F 70.0 °F 67% 29.75 in 10.0 mi WSW 11.5 mph 24.2 mph N/A   Scattered Clouds
8:53 PM 80.1 °F 83.2 °F 70.0 °F 71% 29.77 in 10.0 mi WSW 9.2 mph - N/A   Partly Cloudy
9:53 PM 80.1 °F 83.2 °F 70.0 °F 71% 29.78 in 10.0 mi WSW 5.8 mph - N/A   Mostly Cloudy
10:53 PM 80.1 °F 83.2 °F 70.0 °F 71% 29.79 in 10.0 mi WSW 10.4 mph - N/A   Overcast
11:53 PM 78.1 °F - 71.1 °F 79% 29.78 in 10.0 mi SW 5.8 mph - 0.00 in   Overcast